Location: Melizzano
(41.1500°N, 14.5000°E)
Time: 18:40:33
(UTC+00:00)

Cosmos 1709 Rocket - Pass Details

Date: 11 May 2021
Orbit: 948 x 1002 km, 82.9° (Epoch: 21 June)

Event Time Altitude Azimuth Distance (km) Brightness Sun altitude
Rises 19:18:17 0° 356° (N) 3,633 7.6 -11.9°
Reaches altitude 10° 19:20:51 10° 1° (N) 2,681 6.8 -12.3°
Maximum altitude 19:26:51 56° 79° (E) 1,114 4.1 -13.2°
Enters shadow 19:31:41 16° 154° (SSE) 2,259 5.4 -13.9°
